Location: ??????
(42.0089°N, 44.3281°E)
Time: 17:38:31
(UTC+00:00)

Okean 1-7 Rocket - Pass Details

Date: 07 June 2022
Orbit: 616 x 648 km, 82.5° (Epoch: 01 July)

Event Time Altitude Azimuth Distance (km) Brightness Sun altitude
Exits shadow 23:22:36 34° 197° (SSW) 1,019 4.1 -17.4°
Maximum altitude 23:24:27 78° 278° (W) 635 3.5 -17.3°
Drops below altitude 10° 23:28:51 10° 5° (N) 1,988 7.1 -16.8°
Sets 23:31:06 0° 7° (N) 2,899 8.1 -16.5°
